Location: DAV
(33.5613°N, 82.7640°W)
Time: 01:38:28
(UTC-04:00)

X-37B - Visible Passes

Search period start: 29 October 2020 00:00
Search period end: 07 November 2020 23:00
Orbit: 382 x 392 km, 45.0° (Epoch: 15 October)

Date Brightness Start Highest point End Pass type
(mag) Time Alt. Az. Time Alt. Az. Time Alt. Az.
30 Oct 2.8 06:51:24 10° SSW 06:54:06 26° SE 06:56:48 10° E visible
31 Oct 3.6 05:54:32 11° SSE 05:55:43 12° SE 05:57:06 10° ESE visible
01 Nov 1.1 05:31:56 26° SSW 05:33:27 57° SE 05:36:35 10° ENE visible
02 Nov 3.7 04:36:46 16° E 04:36:46 16° E 04:37:42 10° E visible
02 Nov 1.5 06:09:04 13° W 06:11:32 33° NNW 06:14:29 10° NE visible
03 Nov 1.4 05:13:42 43° NNE 05:13:42 43° NNE 05:16:03 10° NE visible
04 Nov 2.2 05:50:29 20° NW 05:51:09 21° NNW 05:53:41 10° NNE visible
05 Nov 3.4 04:54:50 13° NE 04:54:50 13° NE 04:55:22 10° NE visible
06 Nov 2.9 05:31:23 15° N 05:31:23 15° N 05:32:49 10° NNE visible
07 Nov 3.1 06:08:43 10° NNW 06:09:32 11° N 06:10:20 10° NNE visible
